User: anonymous   Login
Location: Unspecified
(0.0000°N, 0.0000°E)
Time: 19:09:35
(UTC+00:00)
Language:

STARLINK-4591 - Orbit

View from above orbital plane
View from above orbital plane
View from above satellite
View from above satellite

Ground track
Ground track

The orbit is defined by the following mean orbital elements,

1 53607U          26144.72885172 +.00000000 +00000-0 +24329-4 0 00005
2 53607  53.2170 257.8193 0001361  92.7862 267.3286 15.08837716    01
Epoch (UTC): 24 May 2026 17:29:32
Eccentricity: 0.0001361
inclination: 53.2170°
perigee height: 539 km
apogee height: 541 km
right ascension of ascending node: 257.8193°
argument of perigee: 92.7862°
revolutions per day: 15.08837716
mean anomaly at epoch: 267.3286°

The dashed part of the orbit path shows where the satellite is in the earth's shadow,  

DLR